Flag for U.S.A. Weather past 2 weeks in Rochester, New York, U.S.A.

Now
51 °F

Overcast.


Feels Like: 50 °F
Forecast: 48 / 66 °F
Wind: 5 mph from Southwest

Location: Greater Rochester International Airport

Current Time: Sep 15, 2014 at 6:38:38 AM

Latest Report: Sep 15, 2014 at 5:54 AM


Visibility: 10 mi

Pressure: 30.22 "Hg

Humidity: 86%

Dew point: 47 °F

Location of RochesterLocation

Historic Weather in Rochester — Graph

°F

Rochester temperature yesterday

Maximum temperature yesterday: 60 °F (at 12:54 PM)
Minimum temperature yesterday: 41 °F (at 6:54 AM)
Average temperature yesterday: 52 °F

Past Weeks' High & Low Weather Summary

 TemperatureHumidityPressure
High91 °F (Sep 5, 2:54 PM)97% (Sep 1, 2:54 AM)30.37 "Hg (Sep 1, 2:54 AM)
Low41 °F (Sep 14, 6:54 AM)39% (Sep 3, 3:54 PM)29.60 "Hg (Sep 11, 5:54 AM)
Average66 °F75%30.06 "Hg
* Reported Aug 31 4:54 AM — Sep 15 4:54 AM, Rochester, Weather by CustomWeather, © 2014

Note: Actual official high and low records may vary slightly from our data, if they occured in-between our weather recording intervals... More about our weather records

Advertising

Rochester weather history for previous 24 hours

 ConditionsComfort  
Time TempWeatherWind HumidityBarometerVisibility
4:54 AM
Sep 15
50 °FOvercast.3 mph86%30.23 "Hg10 mi
3:54 AM50 °FOvercast.3 mph89%30.23 "Hg10 mi
2:54 AM50 °FOvercast.No wind86%30.23 "Hg10 mi
1:54 AM51 °FPassing clouds.No wind80%30.24 "Hg10 mi
12:54 AM51 °FOvercast.No wind80%30.24 "Hg10 mi
11:54 PM
Sep 14
50 °FPassing clouds.No wind80%30.25 "Hg10 mi
10:54 PM52 °FPassing clouds.No wind72%30.25 "Hg10 mi
9:54 PM53 °FOvercast.3 mph69%30.26 "Hg10 mi
8:54 PM54 °FOvercast.5 mph69%30.26 "Hg10 mi
7:54 PM55 °FOvercast.5 mph67%30.26 "Hg10 mi
6:54 PM56 °FOvercast.7 mph65%30.26 "Hg10 mi
5:54 PM57 °FPartly sunny.8 mph62%30.27 "Hg10 mi
4:54 PM59 °FPartly sunny.3 mph58%30.27 "Hg10 mi
3:54 PM58 °FPartly sunny.7 mph60%30.29 "Hg10 mi
2:54 PM58 °FPartly sunny.5 mph54%30.31 "Hg10 mi
1:54 PM57 °FPartly sunny.No wind53%30.32 "Hg10 mi
12:54 PM60 °FBroken clouds.6 mph52%30.33 "Hg10 mi
11:54 AM58 °FBroken clouds.5 mph56%30.35 "Hg10 mi
11:01 AM55 °FScattered clouds.3 mph67%30.35 "Hg10 mi
9:54 AM51 °FPartly sunny.No wind83%30.37 "Hg10 mi
8:54 AM48 °FMore clouds than sun.No wind89%30.37 "Hg10 mi
7:54 AM43 °FPartly sunny.No wind97%30.37 "Hg10 mi
6:54 AM41 °FPassing clouds.No wind93%30.36 "Hg10 mi
Weather by CustomWeather, © 2014

See weather overviewHow to use our weather pages